Regional Weather Roundup
Issued by NWS

Home | Current Version | Previous Version | Graphics & Text | Print | Product List | Glossary On
Versions: 1 2 3 4 5 6 7 8 9 10 11 12 13 14 15 16 17 18 19 20 21 22 23 24 25 26 27 28 29 30 31 32 33 34 35 36 37 38 39 40 41 42 43 44 45 46 47 48 49 50
346
ASUS45 KBOI 241710
RWRID

IDAHO REGIONAL WEATHER ROUNDUP
NATIONAL WEATHER SERVICE BOISE ID
1000 AM MST FRI FEB 24 2017

NOTE: "FAIR" INDICATES FEW OR NO CLOUDS BELOW 12000 FEET
WITH NO SIGNIFICANT WEATHER AND/OR OBSTRUCTIONS TO VISIBILITY

IDZ012-014-241800-
SOUTHWEST IDAHO


CITY           SKY/WX    TMP DP  RH WIND       PRES   REMARKS
BOISE          MOSUNNY   28  18  66 N8        30.12R WCI  20
CALDWELL       MOSUNNY   33  17  51 W13       30.15R WCI  24
MOUNTAIN HOME  MOSUNNY   32  16  52 NW20G28   30.10S WCI  20
$$

IDZ016-017-241800-
SOUTHCENTRAL IDAHO


CITY           SKY/WX    TMP DP  RH WIND       PRES   REMARKS
BURLEY         MIX PCPN  26  14  60 W20       30.04R WCI  12
JEROME           N/A    N/A N/A N/A MISG      30.05R
TWIN FALLS     SUNNY     21  12  68 SW24      30.06R WCI   4
$$

IDZ019>023-241800-
SOUTHEAST IDAHO


CITY           SKY/WX    TMP DP  RH WIND       PRES   REMARKS
IDAHO FALLS    LGT SNOW  19  18  95 S24       29.97R VSB 1   WCI   2
POCATELLO      LGT SNOW  21  18  88 SW18      30.03R VSB 1   WCI   6
REXBURG        LGT SNOW  20  17  88 S15G21    29.96R VSB 1   WCI   6
$$

IDZ006-010-011-018-031-032-241800-
CENTRAL IDAHO MOUNTAINS


CITY           SKY/WX    TMP DP  RH WIND       PRES   REMARKS
MCCALL         MOSUNNY   18   7  62 NW6       29.97R WCI  10
HAILEY         LGT SNOW  21  19  93 E5        29.92R VSB 3/4 WCI  15
STANLEY          N/A     16  10  77 NW5       29.89R WCI   9
SALMON         PTSUNNY   27  18  69 CALM      29.98S
CHALLIS        CLOUDY    24  13  62 N3        29.93R
$$

IDZ002-004-006-007-026-241800-
NORTHERN IDAHO


CITY           SKY/WX    TMP DP  RH WIND       PRES   REMARKS
LEWISTON       CLOUDY    32  25  75 NE5       30.19R WCI  27
LOWELL           N/A     33  24  69 CALM      30.21R
COEUR D`ALENE  CLOUDY    24  22  91 N6        30.15S WCI  17
MULLAN PASS    SUNNY     16  13  88 VRB3      29.93S
$$




USA.gov is the U.S. government's official web portal to all federal, state and local government web resources and services.